LGS2022 LFRS-EBBR

Flight info

Callsign LGS2022
Flight time 1h 0m
Altitude 32000
Route ANG UL976 RONAX UN873 BAZOS BELDI VEKIN Z173 ARVOL
Aircraft A319/M-SDE3FGHIRWY/LB1

Departure

Time 2026-05-05 08:46
Airport Nantes Atlantique Airport (LFRS)

Arrival

Time 2026-05-05 09:46
Airport Brussels Airport (EBBR)
Time Latitude Longitude Altitude Speed Heading
2026-05-05 08:30 47.15767 -1.60342 93 ft 0 kts 127°
2026-05-05 08:39 47.15780 -1.60369 94 ft 3 kts 126°
2026-05-05 08:40 47.15796 -1.60400 94 ft 3 kts 128°
2026-05-05 08:40 47.15812 -1.60431 94 ft 3 kts 127°
2026-05-05 08:40 47.15823 -1.60452 93 ft 0 kts 126°
2026-05-05 08:41 47.15822 -1.60452 93 ft 0 kts 125°
2026-05-05 08:41 47.15801 -1.60435 93 ft 7 kts 182°
2026-05-05 08:42 47.15747 -1.60475 93 ft 9 kts 208°
2026-05-05 08:42 47.15677 -1.60531 93 ft 13 kts 208°
2026-05-05 08:42 47.15583 -1.60608 94 ft 17 kts 207°
2026-05-05 08:42 47.15467 -1.60698 94 ft 20 kts 207°
2026-05-05 08:43 47.15334 -1.60795 94 ft 22 kts 207°
2026-05-05 08:43 47.15185 -1.60909 94 ft 25 kts 206°
2026-05-05 08:43 47.15023 -1.61031 93 ft 27 kts 207°
2026-05-05 08:43 47.14848 -1.61164 92 ft 29 kts 207°
2026-05-05 08:44 47.14657 -1.61310 89 ft 31 kts 207°
2026-05-05 08:44 47.14456 -1.61464 86 ft 32 kts 207°
2026-05-05 08:44 47.14254 -1.61614 84 ft 30 kts 207°
2026-05-05 08:44 47.14156 -1.61758 82 ft 20 kts 249°
2026-05-05 08:45 47.14175 -1.61939 82 ft 19 kts 338°
2026-05-05 08:45 47.14351 -1.61817 84 ft 58 kts 27°
2026-05-05 08:45 47.14929 -1.61371 91 ft 128 kts 27°
2026-05-05 08:45 47.15859 -1.60651 339 ft 162 kts 25°
2026-05-05 08:46 47.16790 -1.59753 1035 ft 167 kts 45°
2026-05-05 08:46 47.17112 -1.58159 1842 ft 174 kts 99°
2026-05-05 08:46 47.16480 -1.56674 2359 ft 184 kts 147°
2026-05-05 08:46 47.15346 -1.55699 2873 ft 199 kts 147°
2026-05-05 08:47 47.14440 -1.54065 3364 ft 218 kts 110°
2026-05-05 08:47 47.14295 -1.51813 3810 ft 236 kts 78°
2026-05-05 08:47 47.14596 -1.49355 4391 ft 254 kts 78°
2026-05-05 08:47 47.14787 -1.46711 4983 ft 273 kts 85°
2026-05-05 08:48 47.14778 -1.43871 5789 ft 283 kts 91°
2026-05-05 08:48 47.14641 -1.41015 6719 ft 287 kts 94°
2026-05-05 08:48 47.14439 -1.38107 7662 ft 290 kts 96°
2026-05-05 08:48 47.14214 -1.35150 8564 ft 293 kts 96°
2026-05-05 08:49 47.14168 -1.32192 9457 ft 296 kts 78°
2026-05-05 08:49 47.14986 -1.29497 10320 ft 296 kts 50°
2026-05-05 08:49 47.16543 -1.27432 10939 ft 308 kts 36°
2026-05-05 08:49 47.18211 -1.25604 11548 ft 319 kts 36°
2026-05-05 08:50 47.20046 -1.23587 12391 ft 323 kts 36°
2026-05-05 08:50 47.21820 -1.21613 13247 ft 325 kts 36°
2026-05-05 08:50 47.23634 -1.19576 14083 ft 327 kts 37°
2026-05-05 08:50 47.25458 -1.17521 14858 ft 331 kts 38°
2026-05-05 08:51 47.27280 -1.15460 15584 ft 335 kts 38°
2026-05-05 08:51 47.29141 -1.13345 16308 ft 338 kts 39°
2026-05-05 08:51 47.30998 -1.11229 17041 ft 340 kts 39°
2026-05-05 08:51 47.32883 -1.09078 17773 ft 343 kts 40°
2026-05-05 08:52 47.34753 -1.06943 18458 ft 346 kts 40°
2026-05-05 08:52 47.36661 -1.04759 19099 ft 349 kts 40°
2026-05-05 08:52 47.38576 -1.02560 19770 ft 351 kts 41°
2026-05-05 08:52 47.40540 -1.00304 20249 ft 359 kts 41°
2026-05-05 08:53 47.42519 -0.98030 20837 ft 363 kts 41°
2026-05-05 08:53 47.44495 -0.95759 21531 ft 363 kts 41°
2026-05-05 08:53 47.46489 -0.93476 22179 ft 364 kts 41°
2026-05-05 08:53 47.48485 -0.91177 22797 ft 366 kts 40°
2026-05-05 08:54 47.50504 -0.88852 23363 ft 369 kts 41°
2026-05-05 08:54 47.52527 -0.86515 23933 ft 371 kts 41°
2026-05-05 08:54 47.54563 -0.84175 24476 ft 374 kts 41°
2026-05-05 08:54 47.56642 -0.81833 24997 ft 377 kts 41°
2026-05-05 08:55 47.58731 -0.79491 25501 ft 381 kts 39°
2026-05-05 08:55 47.60834 -0.77139 26010 ft 384 kts 41°
2026-05-05 08:55 47.62970 -0.74751 26514 ft 385 kts 40°
2026-05-05 08:55 47.65106 -0.72347 26974 ft 389 kts 40°
2026-05-05 08:56 47.67249 -0.69931 27417 ft 391 kts 40°
2026-05-05 08:56 47.69411 -0.67494 27931 ft 392 kts 40°
2026-05-05 08:56 47.71591 -0.65033 28546 ft 390 kts 40°
2026-05-05 08:56 47.73710 -0.62636 29125 ft 389 kts 40°
2026-05-05 08:57 47.75867 -0.60194 29713 ft 387 kts 40°
2026-05-05 08:57 47.78002 -0.57778 30258 ft 386 kts 40°
2026-05-05 08:57 47.80121 -0.55370 30744 ft 386 kts 40°
2026-05-05 08:57 47.82260 -0.52940 31046 ft 390 kts 40°
2026-05-05 08:58 47.84425 -0.50474 31171 ft 398 kts 40°
2026-05-05 08:58 47.86636 -0.47955 31402 ft 403 kts 40°
2026-05-05 08:58 47.88868 -0.45414 31717 ft 404 kts 40°
2026-05-05 08:58 47.91087 -0.42889 32088 ft 404 kts 39°
2026-05-05 08:59 47.93332 -0.40321 32408 ft 406 kts 41°
2026-05-05 08:59 47.95551 -0.37785 32731 ft 408 kts 40°
2026-05-05 08:59 47.97828 -0.35176 33077 ft 409 kts 40°
2026-05-05 08:59 48.00087 -0.32586 33360 ft 411 kts 42°
2026-05-05 09:00 48.02348 -0.29979 33580 ft 414 kts 43°
2026-05-05 09:00 48.04552 -0.27212 33717 ft 418 kts 46°
2026-05-05 09:00 48.06689 -0.24181 33845 ft 422 kts 50°
2026-05-05 09:00 48.08705 -0.20943 33977 ft 426 kts 53°
2026-05-05 09:01 48.10595 -0.17513 34087 ft 429 kts 56°
2026-05-05 09:01 48.12437 -0.13982 34233 ft 433 kts 56°
2026-05-05 09:01 48.14266 -0.10442 34442 ft 435 kts 57°
2026-05-05 09:01 48.16138 -0.06810 34661 ft 437 kts 57°
2026-05-05 09:02 48.17976 -0.03241 34894 ft 437 kts 56°
2026-05-05 09:02 48.19839 0.00376 35129 ft 437 kts 56°
2026-05-05 09:02 48.21690 0.03970 35348 ft 437 kts 56°
2026-05-05 09:02 48.23557 0.07596 35529 ft 438 kts 56°
2026-05-05 09:03 48.25413 0.11210 35678 ft 441 kts 56°
2026-05-05 09:03 48.27283 0.14849 35799 ft 442 kts 56°
2026-05-05 09:03 48.29154 0.18496 35819 ft 442 kts 56°
2026-05-05 09:04 48.32913 0.25831 35837 ft 443 kts 56°
2026-05-05 09:04 48.36663 0.33181 35832 ft 443 kts 56°
2026-05-05 09:05 48.40405 0.40514 35838 ft 445 kts 56°
2026-05-05 09:05 48.44187 0.47854 35842 ft 446 kts 56°
2026-05-05 09:06 48.47976 0.55238 35829 ft 445 kts 55°
2026-05-05 09:06 48.52066 0.62304 35822 ft 449 kts 48°
2026-05-05 09:07 48.56666 0.68601 35819 ft 451 kts 42°
2026-05-05 09:07 48.61686 0.74376 35824 ft 453 kts 40°
2026-05-05 09:08 48.66732 0.80082 35813 ft 453 kts 40°
2026-05-05 09:08 48.71786 0.85847 35813 ft 453 kts 40°
2026-05-05 09:09 48.76806 0.91601 35828 ft 453 kts 40°
2026-05-05 09:09 48.81793 0.97335 35832 ft 453 kts 40°
2026-05-05 09:10 48.86822 1.03138 35847 ft 456 kts 40°
2026-05-05 09:10 48.91857 1.08956 35854 ft 455 kts 40°
2026-05-05 09:11 48.96873 1.14769 35864 ft 456 kts 40°
2026-05-05 09:11 49.01924 1.20667 35878 ft 455 kts 42°
2026-05-05 09:12 49.06627 1.27005 35876 ft 454 kts 46°
2026-05-05 09:12 49.08921 1.30321 35688 ft 455 kts 46°
2026-05-05 09:12 49.11243 1.33689 35749 ft 456 kts 46°
2026-05-05 09:13 49.15835 1.40348 35975 ft 455 kts 46°
2026-05-05 09:13 49.18118 1.43658 35736 ft 455 kts 46°
2026-05-05 09:13 49.20395 1.46960 35962 ft 455 kts 46°
2026-05-05 09:14 49.24983 1.53627 35729 ft 454 kts 46°
2026-05-05 09:14 49.29576 1.60318 35801 ft 455 kts 46°
2026-05-05 09:15 49.34157 1.67002 35853 ft 456 kts 47°
2026-05-05 09:15 49.38723 1.73684 35864 ft 456 kts 47°
2026-05-05 09:16 49.43327 1.80443 35825 ft 457 kts 47°
2026-05-05 09:16 49.47905 1.87182 35879 ft 456 kts 47°
2026-05-05 09:17 49.52456 1.93897 35867 ft 457 kts 47°
2026-05-05 09:17 49.57034 2.00673 35887 ft 457 kts 47°
2026-05-05 09:18 49.61610 2.07464 35871 ft 458 kts 47°
2026-05-05 09:18 49.66186 2.14277 35867 ft 459 kts 47°
2026-05-05 09:19 49.70773 2.21126 35878 ft 460 kts 47°
2026-05-05 09:19 49.75387 2.28030 35860 ft 460 kts 47°
2026-05-05 09:20 49.79934 2.34852 35790 ft 451 kts 47°
2026-05-05 09:20 49.82175 2.38220 35657 ft 451 kts 47°
2026-05-05 09:20 49.84408 2.41581 35453 ft 451 kts 47°
2026-05-05 09:20 49.86636 2.44942 35285 ft 451 kts 47°
2026-05-05 09:21 49.88883 2.48341 35102 ft 452 kts 47°
2026-05-05 09:21 49.91138 2.51753 34909 ft 453 kts 47°
2026-05-05 09:21 49.93389 2.55162 34642 ft 452 kts 47°
2026-05-05 09:21 49.95613 2.58538 34392 ft 453 kts 47°
2026-05-05 09:22 49.97857 2.61951 34136 ft 452 kts 47°
2026-05-05 09:22 50.00096 2.65354 33470 ft 447 kts 48°
2026-05-05 09:22 50.02331 2.68757 31969 ft 455 kts 48°
2026-05-05 09:22 50.04561 2.72163 30052 ft 466 kts 47°
2026-05-05 09:23 50.06890 2.75731 28453 ft 461 kts 46°
2026-05-05 09:23 50.09125 2.79141 27500 ft 444 kts 47°
2026-05-05 09:23 50.11266 2.82417 26883 ft 430 kts 46°
2026-05-05 09:23 50.13395 2.85677 26383 ft 426 kts 47°
2026-05-05 09:24 50.15492 2.88895 25906 ft 423 kts 46°
2026-05-05 09:24 50.17585 2.92113 25413 ft 419 kts 47°
2026-05-05 09:24 50.19640 2.95280 24964 ft 416 kts 46°
2026-05-05 09:24 50.21683 2.98429 24489 ft 412 kts 46°
2026-05-05 09:25 50.23712 3.01558 24036 ft 408 kts 46°
2026-05-05 09:25 50.25697 3.04628 23602 ft 405 kts 46°
2026-05-05 09:25 50.27709 3.07742 23148 ft 402 kts 46°
2026-05-05 09:25 50.29675 3.10790 22696 ft 399 kts 46°
2026-05-05 09:26 50.31636 3.13831 22253 ft 396 kts 46°
2026-05-05 09:26 50.33584 3.16858 21789 ft 393 kts 46°
2026-05-05 09:26 50.35501 3.19841 21335 ft 390 kts 46°
2026-05-05 09:26 50.37413 3.22820 20922 ft 387 kts 46°
2026-05-05 09:27 50.39296 3.25755 20519 ft 383 kts 46°
2026-05-05 09:27 50.41165 3.28672 20109 ft 380 kts 46°
2026-05-05 09:27 50.43028 3.31580 19685 ft 377 kts 46°
2026-05-05 09:27 50.44875 3.34466 19246 ft 374 kts 46°
2026-05-05 09:28 50.46698 3.37321 18797 ft 371 kts 46°
2026-05-05 09:28 50.48512 3.40160 18365 ft 368 kts 46°
2026-05-05 09:28 50.50319 3.42996 17932 ft 366 kts 46°
2026-05-05 09:28 50.52107 3.45805 17498 ft 363 kts 46°
2026-05-05 09:29 50.53911 3.48515 17066 ft 360 kts 42°
2026-05-05 09:29 50.55839 3.51025 16633 ft 358 kts 38°
2026-05-05 09:29 50.57846 3.53308 16199 ft 355 kts 36°
2026-05-05 09:29 50.59842 3.55497 15773 ft 352 kts 35°
2026-05-05 09:30 50.61859 3.57699 15344 ft 350 kts 35°
2026-05-05 09:30 50.63842 3.59871 14924 ft 347 kts 35°
2026-05-05 09:30 50.65815 3.62037 14494 ft 344 kts 35°
2026-05-05 09:30 50.67750 3.64167 14073 ft 342 kts 35°
2026-05-05 09:31 50.69691 3.66311 13651 ft 339 kts 36°
2026-05-05 09:31 50.71629 3.68449 13227 ft 336 kts 36°
2026-05-05 09:31 50.73508 3.70524 12811 ft 333 kts 36°
2026-05-05 09:31 50.75397 3.72615 12395 ft 330 kts 36°
2026-05-05 09:32 50.77268 3.74694 11965 ft 327 kts 36°
2026-05-05 09:32 50.79131 3.76767 11527 ft 325 kts 36°
2026-05-05 09:32 50.80960 3.78805 11112 ft 321 kts 36°
2026-05-05 09:32 50.82766 3.80821 10711 ft 318 kts 36°
2026-05-05 09:33 50.84558 3.82824 10287 ft 316 kts 35°
2026-05-05 09:33 50.86335 3.84817 10078 ft 304 kts 37°
2026-05-05 09:33 50.87848 3.87050 9942 ft 291 kts 49°
2026-05-05 09:33 50.88985 3.89586 9717 ft 284 kts 57°
2026-05-05 09:34 50.90013 3.92235 9343 ft 282 kts 58°
2026-05-05 09:34 50.91028 3.94899 8979 ft 279 kts 58°
2026-05-05 09:34 50.92005 3.97520 8627 ft 276 kts 63°
2026-05-05 09:34 50.92471 4.00425 8277 ft 276 kts 88°
2026-05-05 09:35 50.92205 4.03423 7935 ft 275 kts 100°
2026-05-05 09:35 50.91389 4.09296 7272 ft 270 kts 100°
2026-05-05 09:35 50.90853 4.12109 6930 ft 270 kts 117°
2026-05-05 09:36 50.89554 4.14226 6581 ft 274 kts 147°
2026-05-05 09:36 50.87758 4.15208 6259 ft 275 kts 164°
2026-05-05 09:36 50.85902 4.15879 5934 ft 273 kts 164°
2026-05-05 09:36 50.84074 4.16562 5612 ft 271 kts 163°
2026-05-05 09:37 50.82240 4.17264 5288 ft 269 kts 163°
2026-05-05 09:37 50.80444 4.17961 4951 ft 267 kts 163°
2026-05-05 09:37 50.78657 4.18659 4650 ft 265 kts 163°
2026-05-05 09:37 50.76850 4.19368 4333 ft 264 kts 163°
2026-05-05 09:38 50.75077 4.20063 4020 ft 262 kts 163°
2026-05-05 09:38 50.73331 4.20747 3710 ft 260 kts 163°
2026-05-05 09:38 50.71614 4.21416 3624 ft 248 kts 162°
2026-05-05 09:38 50.69997 4.22175 3534 ft 234 kts 148°
2026-05-05 09:39 50.68930 4.23899 3410 ft 214 kts 108°
2026-05-05 09:39 50.68787 4.26157 3218 ft 203 kts 76°
2026-05-05 09:39 50.69151 4.28240 3224 ft 197 kts 72°
2026-05-05 09:39 50.69527 4.30333 3192 ft 197 kts 72°
2026-05-05 09:40 50.69882 4.32410 3088 ft 197 kts 73°
2026-05-05 09:40 50.70228 4.34514 2970 ft 197 kts 73°
2026-05-05 09:40 50.70565 4.36611 2710 ft 200 kts 74°
2026-05-05 09:40 50.70906 4.38759 2407 ft 202 kts 74°
2026-05-05 09:41 50.71273 4.40913 2119 ft 202 kts 64°
2026-05-05 09:41 50.72171 4.42502 1993 ft 192 kts 27°
2026-05-05 09:41 50.73402 4.43138 1995 ft 180 kts 14°
2026-05-05 09:41 50.74553 4.43489 2042 ft 158 kts 13°
2026-05-05 09:42 50.75558 4.43816 1981 ft 138 kts 15°
2026-05-05 09:42 50.76481 4.44155 2011 ft 136 kts 16°
2026-05-05 09:42 50.77401 4.44516 1995 ft 133 kts 16°
2026-05-05 09:42 50.78294 4.44877 1997 ft 133 kts 17°
2026-05-05 09:43 50.79191 4.45245 1995 ft 133 kts 17°
2026-05-05 09:43 50.80088 4.45613 1956 ft 134 kts 17°
2026-05-05 09:43 50.80991 4.45984 1779 ft 133 kts 17°
2026-05-05 09:43 50.81891 4.46352 1603 ft 133 kts 17°
2026-05-05 09:44 50.82782 4.46717 1427 ft 132 kts 17°
2026-05-05 09:44 50.83672 4.47084 1258 ft 132 kts 16°
2026-05-05 09:44 50.84552 4.47445 1076 ft 131 kts 16°
2026-05-05 09:44 50.85435 4.47806 898 ft 131 kts 15°
2026-05-05 09:45 50.86318 4.48169 719 ft 131 kts 15°
2026-05-05 09:45 50.87190 4.48526 542 ft 130 kts 14°
2026-05-05 09:45 50.88055 4.48880 340 ft 126 kts 14°
2026-05-05 09:45 50.88884 4.49218 200 ft 121 kts 14°
2026-05-05 09:46 50.89600 4.49510 193 ft 86 kts 14°
2026-05-05 09:46 50.90034 4.49686 193 ft 39 kts 14°
2026-05-05 09:46 50.90183 4.49713 193 ft 17 kts 357°
2026-05-05 09:46 50.90303 4.49676 193 ft 17 kts 345°
2026-05-05 09:47 50.90375 4.49643 193 ft 10 kts 341°
2026-05-05 09:47 50.90445 4.49566 193 ft 13 kts 321°
2026-05-05 09:47 50.90536 4.49506 193 ft 15 kts 14°
2026-05-05 09:47 50.90651 4.49558 193 ft 18 kts 13°
2026-05-05 09:48 50.90771 4.49556 193 ft 19 kts 295°
2026-05-05 09:48 50.90726 4.49351 193 ft 21 kts 245°
2026-05-05 09:48 50.90665 4.49140 193 ft 21 kts 246°
2026-05-05 09:48 50.90603 4.48922 193 ft 21 kts 243°
2026-05-05 09:49 50.90538 4.48708 193 ft 22 kts 245°
2026-05-05 09:49 50.90476 4.48484 193 ft 22 kts 245°
2026-05-05 09:49 50.90411 4.48259 193 ft 22 kts 245°
2026-05-05 09:49 50.90344 4.48040 193 ft 21 kts 244°
2026-05-05 09:50 50.90282 4.47824 193 ft 21 kts 245°
2026-05-05 09:50 50.90226 4.47638 193 ft 15 kts 243°
2026-05-05 09:50 50.90165 4.47596 193 ft 10 kts 154°
2026-05-05 09:50 50.90142 4.47614 193 ft 1 kts 153°
2026-05-05 09:51 50.90134 4.47620 193 ft 0 kts 153°
2026-05-05 09:51 50.90132 4.47621 193 ft 0 kts 153°